TimeCDT,TemperatureF,Dew PointF,Humidity,Sea Level PressureIn,VisibilityMPH,Wind Direction,Wind SpeedMPH,Gust SpeedMPH,PrecipitationIn,Events,Conditions,WindDirDegrees,DateUTC
12:15 AM,48.2,42.8,82,29.93,10.0,NE,4.6,-,N/A,,Overcast,50,2012-10-23 05:15:00
12:35 AM,48.2,42.8,82,29.93,10.0,ENE,8.1,-,N/A,,Overcast,60,2012-10-23 05:35:00
12:55 AM,48.2,42.8,82,29.93,10.0,ENE,8.1,-,N/A,,Overcast,70,2012-10-23 05:55:00
1:15 AM,48.2,42.8,82,29.91,10.0,ENE,8.1,-,N/A,,Overcast,70,2012-10-23 06:15:00
1:35 AM,48.2,42.8,82,29.90,10.0,ENE,8.1,-,N/A,,Overcast,60,2012-10-23 06:35:00
2:15 AM,48.2,42.8,82,29.90,10.0,East,10.4,-,N/A,,Overcast,80,2012-10-23 07:15:00
2:35 AM,48.2,42.8,82,29.90,10.0,ENE,9.2,-,N/A,,Overcast,70,2012-10-23 07:35:00
2:55 AM,48.2,42.8,82,29.89,10.0,ENE,8.1,-,N/A,,Overcast,70,2012-10-23 07:55:00
3:15 AM,48.2,42.8,82,29.88,10.0,ENE,11.5,-,N/A,,Overcast,70,2012-10-23 08:15:00
3:35 AM,48.2,42.8,82,29.88,10.0,ENE,8.1,-,N/A,,Overcast,70,2012-10-23 08:35:00
4:15 AM,48.2,44.6,87,29.85,10.0,ENE,11.5,16.1,N/A,,Overcast,70,2012-10-23 09:15:00
4:35 AM,48.2,42.8,82,29.85,10.0,ENE,10.4,-,N/A,,Overcast,70,2012-10-23 09:35:00
4:55 AM,48.2,42.8,82,29.86,10.0,ENE,8.1,-,N/A,,Overcast,70,2012-10-23 09:55:00
5:15 AM,48.2,44.6,87,29.85,10.0,East,12.7,17.3,N/A,,Overcast,80,2012-10-23 10:15:00
6:15 AM,46.4,44.6,93,29.84,10.0,East,8.1,-,N/A,,Overcast,80,2012-10-23 11:15:00
6:35 AM,46.4,44.6,93,29.83,10.0,ENE,9.2,-,N/A,Thunderstorm,Overcast,70,2012-10-23 11:35:00
6:55 AM,48.2,44.6,87,29.84,10.0,ENE,9.2,-,N/A,,Overcast,70,2012-10-23 11:55:00
7:15 AM,48.2,44.6,87,29.83,10.0,ENE,10.4,-,N/A,,Overcast,70,2012-10-23 12:15:00
7:35 AM,48.2,44.6,87,29.84,10.0,ENE,8.1,-,N/A,,Overcast,70,2012-10-23 12:35:00
7:55 AM,48.2,44.6,87,29.84,10.0,East,10.4,-,N/A,,Overcast,80,2012-10-23 12:55:00
8:15 AM,48.2,44.6,87,29.83,10.0,ENE,8.1,-,N/A,Thunderstorm,Overcast,70,2012-10-23 13:15:00
8:35 AM,48.2,44.6,87,29.84,10.0,ENE,6.9,-,N/A,Thunderstorm,Overcast,70,2012-10-23 13:35:00
8:55 AM,48.2,44.6,87,29.84,10.0,ENE,4.6,-,N/A,Thunderstorm,Overcast,60,2012-10-23 13:55:00
9:15 AM,48.2,44.6,87,29.83,7.0,ENE,9.2,-,N/A,Rain,Rain,70,2012-10-23 14:15:00
9:35 AM,48.2,46.4,93,29.83,7.0,East,9.2,-,0.01,,Overcast,80,2012-10-23 14:35:00
9:55 AM,48.2,46.4,93,29.81,10.0,East,9.2,-,0.01,,Overcast,80,2012-10-23 14:55:00
10:15 AM,48.2,46.4,93,29.80,7.0,East,10.4,-,N/A,,Overcast,80,2012-10-23 15:15:00
10:35 AM,50.0,46.4,87,29.80,7.0,East,10.4,-,N/A,,Overcast,90,2012-10-23 15:35:00
10:55 AM,50.0,46.4,87,29.79,7.0,East,8.1,-,N/A,,Overcast,90,2012-10-23 15:55:00
11:35 AM,50.0,48.2,94,29.79,4.0,East,8.1,-,N/A,,Overcast,80,2012-10-23 16:35:00
11:55 AM,50.0,48.2,94,29.78,2.0,East,9.2,-,N/A,,Overcast,80,2012-10-23 16:55:00
12:15 PM,50.0,48.2,94,29.78,2.5,East,6.9,-,N/A,,Overcast,80,2012-10-23 17:15:00
12:35 PM,50.0,50.0,100,29.77,1.8,East,9.2,-,N/A,,Overcast,80,2012-10-23 17:35:00
12:55 PM,50.0,50.0,100,29.77,4.0,East,8.1,-,N/A,,Overcast,80,2012-10-23 17:55:00
1:15 PM,50.0,50.0,100,29.76,3.0,East,6.9,-,N/A,,Overcast,80,2012-10-23 18:15:00
1:35 PM,50.0,50.0,100,29.76,3.0,East,6.9,-,N/A,,Overcast,90,2012-10-23 18:35:00
1:55 PM,50.0,50.0,100,29.75,4.0,ENE,5.8,-,N/A,,Overcast,70,2012-10-23 18:55:00
2:15 PM,50.0,50.0,100,29.75,4.0,ENE,8.1,-,N/A,,Overcast,70,2012-10-23 19:15:00
2:35 PM,51.8,50.0,94,29.74,4.0,ENE,6.9,-,N/A,,Overcast,70,2012-10-23 19:35:00
2:55 PM,51.8,50.0,94,29.73,2.5,East,10.4,-,N/A,,Overcast,80,2012-10-23 19:55:00
3:15 PM,51.8,50.0,94,29.72,3.0,East,8.1,-,N/A,,Overcast,80,2012-10-23 20:15:00
3:35 PM,51.8,50.0,94,29.72,5.0,East,6.9,-,N/A,,Overcast,80,2012-10-23 20:35:00
3:55 PM,51.8,51.8,100,29.72,5.0,East,5.8,-,N/A,,Overcast,90,2012-10-23 20:55:00
4:15 PM,53.6,51.8,94,29.72,5.0,East,9.2,-,N/A,,Overcast,80,2012-10-23 21:15:00
4:35 PM,51.8,51.8,100,29.72,2.5,East,8.1,-,N/A,,Overcast,80,2012-10-23 21:35:00
4:55 PM,51.8,51.8,100,29.73,1.8,ENE,5.8,-,N/A,,Overcast,70,2012-10-23 21:55:00
5:15 PM,51.8,51.8,100,29.73,2.0,ENE,4.6,-,N/A,,Overcast,60,2012-10-23 22:15:00
5:35 PM,51.8,51.8,100,29.73,2.5,ENE,3.5,-,N/A,,Overcast,60,2012-10-23 22:35:00
5:55 PM,51.8,51.8,100,29.73,3.0,NE,3.5,-,N/A,,Overcast,50,2012-10-23 22:55:00
6:15 PM,51.8,51.8,100,29.73,2.5,ENE,4.6,-,N/A,,Overcast,70,2012-10-23 23:15:00
6:35 PM,51.8,51.8,100,29.74,2.5,East,6.9,-,N/A,,Overcast,80,2012-10-23 23:35:00
6:55 PM,51.8,51.8,100,29.74,3.0,East,3.5,-,N/A,,Overcast,80,2012-10-23 23:55:00
7:15 PM,51.8,51.8,100,29.74,3.0,East,4.6,-,N/A,,Overcast,80,2012-10-24 00:15:00
7:35 PM,53.6,51.8,94,29.75,4.0,East,3.5,-,N/A,,Overcast,90,2012-10-24 00:35:00
7:55 PM,53.6,53.6,100,29.75,4.0,ESE,3.5,-,N/A,,Overcast,110,2012-10-24 00:55:00
8:15 PM,53.6,53.6,100,29.76,4.0,Calm,Calm,-,N/A,,Overcast,0,2012-10-24 01:15:00
8:35 PM,53.6,53.6,100,29.75,3.0,SE,3.5,-,N/A,,Overcast,130,2012-10-24 01:35:00
8:55 PM,53.6,53.6,100,29.76,2.5,SE,3.5,-,N/A,,Overcast,140,2012-10-24 01:55:00
9:15 PM,53.6,53.6,100,29.76,3.0,Calm,Calm,-,N/A,,Overcast,0,2012-10-24 02:15:00
9:35 PM,53.6,53.6,100,29.76,2.5,Calm,Calm,-,N/A,,Overcast,0,2012-10-24 02:35:00
10:15 PM,53.6,53.6,100,29.77,1.2,Calm,Calm,-,N/A,,Overcast,0,2012-10-24 03:15:00
10:35 PM,53.6,53.6,100,29.78,2.5,Calm,Calm,-,N/A,,Overcast,0,2012-10-24 03:35:00
10:55 PM,53.6,53.6,100,29.77,2.0,Calm,Calm,-,N/A,,Overcast,0,2012-10-24 03:55:00
11:15 PM,53.6,53.6,100,29.77,2.5,SSE,3.5,-,N/A,,Overcast,160,2012-10-24 04:15:00
11:35 PM,53.6,53.6,100,29.78,2.5,SSW,3.5,-,N/A,,Overcast,200,2012-10-24 04:35:00
11:55 PM,53.6,53.6,100,29.78,2.5,SSE,3.5,-,N/A,,Overcast,160,2012-10-24 04:55:00